Regional Weather Roundup
Issued by NWS

Home | Current Version | Previous Version | Text Only | Print | Product List | Glossary On
Versions: 1 2 3 4 5 6 7 8 9 10 11 12 13 14 15 16 17 18 19 20 21 22 23 24 25 26 27 28 29 30 31 32 33 34 35 36 37 38 39 40 41 42 43 44 45 46 47 48 49 50
492
ASUS43 KLMK 231910
RWRKY
KENTUCKY REGIONAL WEATHER ROUNDUP
NATIONAL WEATHER SERVICE LOUISVILLE KY
300 PM EDT MON OCT 23 2017

NOTE "FAIR" INDICATES FEW OR NO CLOUDS BELOW 12,000 FEET
WITH NO SIGNIFICANT WEATHER AND/OR OBSTRUCTIONS TO VISIBILITY.

KYZ001>023-026-027-061>063-070>075-232000-
WESTERN AND SOUTH CENTRAL KENTUCKY

CITY           SKY/WX    TMP DP  RH WIND       PRES   REMARKS
PADUCAH        CLOUDY    63  40  42 NW9       29.87F
HENDERSON      LGT RAIN  53  52  96 W14       29.81R
OWENSBORO      CLOUDY    55  52  88 W15       29.79
HOPKINSVILLE   CLOUDY    55  50  82 W16G25    29.87R FOG
BOWLING GREEN  CLOUDY    59  54  83 SW16G23   29.81F
GLASGOW        CLOUDY    57  55  94 W13       29.79F
$$

KYZ024-025-028>034-038-045-046-053-232000-
NORTH CENTRAL KENTUCKY

CITY           SKY/WX    TMP DP  RH WIND       PRES   REMARKS
LOUISVILLE/SDF CLOUDY    60  56  86 SW12      29.73F
LOUISVILLE/LOU LGT RAIN  60  58  92 SW12      29.73F FOG
FORT KNOX      LGT RAIN  57  55  94 SW15      29.73F
$$

KYZ035>037-039>044-047>052-055>060-089>105-232000-
NORTHEAST KENTUCKY

CITY           SKY/WX    TMP DP  RH WIND       PRES   REMARKS
LEXINGTON      CLOUDY    61  56  83 S9        29.74F
COVINGTON      LGT RAIN  61  61 100 SE10      29.70F
FRANKFORT      CLOUDY    61  56  83 S10       29.72R
$$

KYZ054-064>069-076>088-106>120-232000-
SOUTHEAST KENTUCKY

CITY           SKY/WX    TMP DP  RH WIND       PRES   REMARKS
JACKSON        RAIN      58  57  97 CALM      29.76F VSB 1/2
LONDON         CLOUDY    61  57  87 VRB3      29.75R
SOMERSET       CLOUDY    61  59  94 S5        29.76F
MIDDLESBORO    CLOUDY    64  57  80 S6        29.78F
MONTICELLO     LGT RAIN  59  57  93 W23G37    29.79R FOG
$$





USA.gov is the U.S. government's official web portal to all federal, state and local government web resources and services.